ATLAS CENTAUR 2 1 00694U 63047A 21019.05356263 .00000405 00000-0 36780-4 0 9999 2 00694 30.3591 143.6165 0585478 258.9029 94.5220 14.02740315867011 THOR AGENA D R/B 1 00733U 64002A 21019.17425182 .00000047 00000-0 34843-4 0 9995 2 00733 98.9937 284.8387 0033294 324.6163 35.2811 14.32423090970123 SL-3 R/B 1 00877U 64053B 21019.16240057 -.00000062 00000-0 12591-4 0 9999 2 00877 65.0782 58.5990 0079325 306.5971 52.7848 14.59414464992966 SL-8 R/B 1 02802U 67045B 21018.86959348 -.00000027 00000-0 43069-6 0 9996 2 02802 74.0110 244.6274 0066751 342.6730 17.2148 14.43794159818272 SL-8 R/B 1 03230U 68040B 21018.73859468 .00000173 00000-0 21501-4 0 9992 2 03230 74.0363 137.1492 0028780 99.9518 260.4914 14.90715038809670 OAO 2 1 03597U 68110A 21018.86317200 .00000020 00000-0 10762-4 0 9991 2 03597 34.9938 283.0388 0006278 291.9755 68.0268 14.45870621747393 ISIS 1 1 03669U 69009A 21018.88228840 .00000016 00000-0 13382-4 0 9998 2 03669 88.4372 2.7576 1710439 272.4332 68.2879 11.29495419136705 SERT 2 1 04327U 70009A 21018.85077381 -.00000048 00000-0 -98529-5 0 9995 2 04327 99.1666 58.0606 0004084 292.3030 240.9215 13.58496113525179 SL-3 R/B 1 04814U 70113B 21019.13220580 .00000903 00000-0 24678-4 0 9996 2 04814 81.1410 257.5478 0022773 247.6443 112.2383 15.36011043735686 SL-3 R/B 1 05118U 71028B 21018.82855216 .00000098 00000-0 36984-5 0 9994 2 05118 81.2552 88.9519 0046419 200.7495 159.1851 15.14819823702428 ASTEX 1 1 05560U 71089A 21019.18309488 .00000072 00000-0 19619-4 0 9994 2 05560 92.7208 266.3758 0014037 286.5090 73.4572 14.48109454590987 SL-8 R/B 1 05730U 71119B 21019.13998726 .00001403 00000-0 91517-4 0 9997 2 05730 73.8961 333.2419 0688861 316.1032 38.7278 14.04764214389726 COSMOS 482 DESCENT CRAFT 1 06073U 72023E 21019.17399722 .00018016 55307-5 75136-4 0 9990 2 06073 52.0454 34.0422 1305972 230.7479 117.0277 13.18902110530539 OAO 3 (COPERNICUS) 1 06153U 72065A 21018.81640860 .00000012 00000-0 69406-5 0 9993 2 06153 35.0055 162.7984 0007335 320.5882 191.6645 14.57965989572401 ATLAS CENTAUR R/B 1 06155U 72065B 21018.82738561 .00000087 00000-0 17311-4 0 9991 2 06155 35.0048 71.3429 0037462 159.8483 200.3703 14.71638767564364 SL-8 R/B 1 07004U 73107B 21018.72406314 .00033886 21457-5 17871-3 0 9997 2 07004 73.9163 25.6532 0074896 276.6160 82.6545 15.76647384441029 SL-8 R/B 1 08459U 75112B 21018.81820446 .00000048 00000-0 24909-4 0 9997 2 08459 74.0598 224.7152 0015007 64.1978 296.0722 14.36827840362352 SL-3 R/B 1 10114U 77057B 21019.14199508 .00000219 00000-0 14118-4 0 9994 2 10114 97.3336 167.0674 0015114 59.6061 300.6664 15.17660224382484 SEASAT 1 1 10967U 78064A 21018.87052545 -.00000052 00000-0 24909-4 0 9992 2 10967 107.9988 161.1138 0001263 280.4372 79.6630 14.43856157235685 METEOR 1-29 1 11251U 79005A 21019.08927992 .00001040 00000-0 28791-4 0 9996 2 11251 97.6685 317.4252 0016844 73.8096 286.5001 15.39391933841239 SL-14 R/B 1 11267U 79011B 21018.86026147 .00000080 00000-0 58083-5 0 9998 2 11267 82.5240 70.9752 0016791 181.8575 178.2584 14.89000461249440 SL-8 R/B 1 11574U 79089B 21019.17076442 .00000038 00000-0 20056-4 0 9993 2 11574 74.0716 317.0877 0017179 248.9849 110.9470 14.40784856166087 SL-14 R/B 1 11672U 80005B 21018.78820268 .00000086 00000-0 66274-5 0 9997 2 11672 82.5160 281.2465 0015213 284.0613 75.8913 14.88026790197325 SL-8 R/B 1 12139U 81003B 21019.02307486 .00001679 00000-0 79177-4 0 9999 2 12139 82.9518 136.1459 0458176 259.0278 95.9077 14.57851831 37846 SL-3 R/B 1 12465U 81046B 21018.88926011 .00000888 00000-0 45842-4 0 9995 2 12465 81.2443 316.4670 0032700 254.9598 104.8011 15.14822862152892 METEOR PRIRODA 1 12585U 81065A 21018.98918831 .00000407 00000-0 20933-4 0 9992 2 12585 97.5642 14.4955 0015284 131.5163 228.7387 15.22016942161708 SL-3 R/B 1 12904U 81103B 21018.79595547 -.00000170 00000-0 -13245-4 0 9991 2 12904 81.1748 216.8162 0029446 68.4152 292.0204 15.05919298689960 SL-3 R/B 1 13068U 82013B 21019.14835906 .00000795 00000-0 50572-4 0 9995 2 13068 81.2044 163.9535 0021548 304.1976 55.7206 15.07554570121122 SL-3 R/B 1 13154U 82039B 21018.83814305 .00000135 00000-0 92673-5 0 9991 2 13154 81.1826 188.9943 0039671 341.2618 18.7138 14.98831112 99919 SL-3 R/B 1 13403U 82079B 21018.83110344 -.00000158 00000-0 -11920-4 0 9996 2 13403 81.1672 206.1125 0031576 272.1220 87.6388 15.07298684 94051 COSMOS 1408 1 13552U 82092A 21019.19527652 .00000733 00000-0 25105-4 0 9997 2 13552 82.5660 63.0933 0019431 91.8166 268.5299 15.28314885 97325 SL-14 R/B 1 13553U 82092B 21018.71683530 .00000073 00000-0 58028-5 0 9991 2 13553 82.5688 92.0268 0022187 34.0296 81.2988 14.84257725 50496 SL-3 R/B 1 13819U 83010B 21018.85003049 .00000170 00000-0 74726-5 0 9994 2 13819 81.1147 67.3265 0030721 282.2352 77.5437 15.15982287 72103 COSMOS 1455 1 14032U 83037A 21019.05529152 .00000603 00000-0 27426-4 0 9997 2 14032 82.5141 230.2523 0017932 40.8160 319.4414 15.18586735 60372 SL-3 R/B 1 14208U 83075B 21019.10415744 .00000314 00000-0 22215-4 0 9991 2 14208 97.4209 2.0139 0036960 284.8965 74.8174 15.11303493 45593 COSMOS 1500 1 14372U 83099A 21018.79791029 .00000826 00000-0 37746-4 0 9999 2 14372 82.5163 125.8249 0014563 195.8925 281.9014 15.19067791 36485 COSMOS 1536 1 14699U 84013A 21018.81973651 .00000303 00000-0 18950-4 0 9990 2 14699 82.5278 139.0223 0011518 257.4264 102.5675 15.05721241 10420 COSMOS 1544 1 14819U 84027A 21019.09072148 .00001136 00000-0 39553-4 0 9998 2 14819 82.4839 146.3751 0014763 95.3505 264.9419 15.28484476 16038 SL-14 R/B 1 14820U 84027B 21018.85105568 .00000073 00000-0 58880-5 0 9990 2 14820 82.5417 199.9887 0019967 55.2454 305.0638 14.83685232969351 ERBS 1 15354U 84108B 21018.83667138 .00002293 00000-0 45798-4 0 9996 2 15354 57.0036 219.1316 0014927 99.0904 261.1844 15.51292617 979 SL-8 R/B 1 15483U 85006B 21018.68337453 .00000015 00000-0 14090-4 0 9995 2 15483 74.0461 108.0386 0017718 128.0326 339.6507 14.36348093884562 COSMOS 1626 1 15494U 85009A 21018.71839896 .00000883 00000-0 34462-4 0 9990 2 15494 82.4786 15.2975 0003693 116.5909 243.5708 15.24568386968179 SL-12 R/B(2) 1 15772U 85042D 21018.64144521 -.00000091 00000-0 -19898-4 0 9991 2 15772 71.1088 88.3995 0034925 167.8892 301.4039 14.21283643847783 SL-14 R/B 1 15945U 85069B 21018.88119083 .00000072 00000-0 57242-5 0 9996 2 15945 82.5290 344.4895 0018132 273.3085 86.6056 14.84061971894487 SL-3 R/B 1 16111U 85090B 21019.08099832 .00008687 00000-0 77935-4 0 9998 2 16111 97.4818 211.6743 0009940 178.4558 181.6736 15.68504693948777 SL-16 R/B 1 16182U 85097B 21018.74201257 -.00000262 00000-0 -10778-3 0 9995 2 16182 71.0020 128.5229 0009621 243.6156 223.2064 14.16253961821620 SL-14 R/B 1 16496U 86006B 21018.82810066 .00000066 00000-0 49346-5 0 9992 2 16496 82.5235 220.2570 0020598 62.3177 308.4314 14.84165694870793 COSMOS 1743 1 16719U 86034A 21018.81871088 .00000142 00000-0 56778-5 0 9993 2 16719 82.5533 146.3132 0013216 62.2112 89.9849 15.15887855894055 SL-14 R/B 1 16792U 86046B 21019.14305399 .00000057 00000-0 41124-5 0 9995 2 16792 82.4814 47.7855 0022765 294.5401 124.9034 14.83268130869357 SL-14 R/B 1 16882U 86055B 21019.20695997 .00000069 00000-0 54805-5 0 9991 2 16882 82.5208 85.1916 0020923 45.9620 5.2454 14.83252636862369 AJISAI (EGS) 1 16908U 86061A 21019.19946674 -.00000107 00000-0 -65725-4 0 9993 2 16908 50.0102 100.2986 0011435 192.7615 199.7065 12.44493087234812 COSMOS 1812 1 17295U 87003A 21019.18043191 .00000508 00000-0 24962-4 0 9992 2 17295 82.5152 292.9189 0001691 267.8698 92.2341 15.15803169857620 SL-14 R/B 1 17567U 87024B 21018.82016067 .00000069 00000-0 54360-5 0 9997 2 17567 82.5276 51.2855 0018658 343.4647 16.5957 14.83788286809873 COSMOS 1833 1 17589U 87027A 21018.87411457 -.00000254 00000-0 -11046-3 0 9991 2 17589 70.9205 308.3469 0015844 152.3383 207.8584 14.12904315745342 SL-16 R/B 1 17590U 87027B 21018.88732472 -.00000192 00000-0 -72102-4 0 9999 2 17590 71.0023 267.7154 0002855 115.1712 244.9708 14.16792426749676 SL-14 R/B 1 17912U 87038B 21018.76059815 .00000057 00000-0 40392-5 0 9994 2 17912 82.5013 259.6375 0019035 228.5534 131.4046 14.83063701801039 COSMOS 1844 1 17973U 87041A 21019.18028052 .00000043 00000-0 47788-4 0 9991 2 17973 70.9004 28.3655 0033049 314.0744 45.7657 14.14120365738616 SL-14 R/B 1 18153U 87055B 21018.85565649 .00000075 00000-0 61660-5 0 9999 2 18153 82.5021 312.9104 0023120 82.7789 277.6053 14.83311727791719 COSMOS 1867 1 18187U 87060A 21018.76045942 -.00000096 00000-0 15599-5 0 9995 2 18187 65.0101 158.1484 0016993 282.4587 77.4595 14.31118695751453 COSMOS 1892 1 18421U 87088A 21018.86402475 .00000654 00000-0 30976-4 0 9999 2 18421 82.4990 60.3234 0015947 42.8604 317.3869 15.17425972817217 SL-14 R/B 1 18749U 88001B 21018.90430850 .00000099 00000-0 91758-5 0 9990 2 18749 82.5153 155.7395 0017573 311.3243 165.9557 14.83242879763800 COSMOS 1933 1 18958U 88020A 21019.12081904 .00000623 00000-0 43174-4 0 9991 2 18958 82.5298 277.3128 0012438 132.1884 228.0401 15.03840236788666 SL-3 R/B 1 19046U 88032B 21019.13265620 .00000729 00000-0 58026-4 0 9992 2 19046 97.3907 36.5002 0036959 190.8297 169.2137 15.02827332769645 SL-16 R/B 1 19120U 88039B 21019.14559576 -.00000206 00000-0 -74887-4 0 9994 2 19120 71.0152 72.7581 0023036 330.9599 29.0243 14.19218092692524 COSMOS 1953 1 19210U 88050A 21018.78206920 .00000925 00000-0 61103-4 0 9991 2 19210 82.5162 200.7885 0014210 101.6527 258.6296 15.06146299754073 SL-8 R/B 1 19257U 88053B 21019.18809485 .00000023 00000-0 16580-4 0 9993 2 19257 74.0504 324.2990 0021733 250.9050 208.6375 14.37499294707289 COSMOS 1975 1 19573U 88093A 21018.84741149 .00000961 00000-0 65490-4 0 9997 2 19573 82.5208 155.5338 0014830 143.8679 216.3553 15.05044696735905 SL-14 R/B 1 19574U 88093B 21018.88339328 .00000080 00000-0 67130-5 0 9990 2 19574 82.5326 358.5930 0023089 110.2252 310.3293 14.83353593722806 SL-16 R/B 1 19650U 88102B 21018.76387301 -.00000133 00000-0 -43125-4 0 9995 2 19650 71.0007 137.1563 0015155 337.5261 22.5196 14.15800664661359 INTERCOSMOS 24 1 20261U 89080A 21019.10726614 .00000051 00000-0 13998-4 0 9996 2 20261 82.6022 240.7120 1202340 310.2422 39.9344 12.56165918430660 SL-14 R/B 1 20262U 89080C 21019.15074111 .00000076 00000-0 14347-4 0 9996 2 20262 82.5946 295.7511 1237745 145.2943 223.5636 12.48954259425495 DELTA 2 R/B(1) 1 20303U 89085B 21018.59516921 .00002467 00000-0 78283-4 0 9999 2 20303 35.6420 98.0915 0093147 290.3876 68.6867 15.28442351701522 DELTA 1 R/B 1 20323U 89089B 21019.17996393 .00000123 00000-0 41211-4 0 9993 2 20323 97.1150 136.8792 0070222 272.3633 86.9525 14.48380397644624 ARIANE 40 R/B 1 20443U 90005H 21018.78187104 -.00000015 00000-0 95431-5 0 9999 2 20443 98.5497 85.9475 0011323 65.0619 295.1743 14.38112844623066 DELTA 2 R/B(1) 1 20453U 90008B 21018.79694297 .00001636 00000-0 91685-4 0 9995 2 20453 35.6268 66.0859 0279209 303.0706 54.3484 14.86162614643244 COSMOS 2058 1 20465U 90010A 21018.86227017 .00000284 00000-0 21642-4 0 9995 2 20465 82.4881 66.0606 0015182 189.1026 170.9925 14.98123931660576 SL-14 R/B 1 20466U 90010B 21018.81193018 .00000053 00000-0 37454-5 0 9997 2 20466 82.5014 225.2222 0020338 354.3364 5.7616 14.81407625650612 SL-14 R/B 1 20511U 90018B 21018.86616144 .00000079 00000-0 72490-5 0 9998 2 20511 82.5235 172.5238 0018644 128.5552 342.5292 14.80063200644976 HST 1 20580U 90037B 21019.18795139 .00000444 00000-0 15912-4 0 9994 2 20580 28.4710 332.6506 0002476 252.1106 296.1712 15.09537364488685 SL-16 R/B 1 20625U 90046B 21018.88646034 .00000292 00000-0 17630-3 0 9998 2 20625 70.9991 276.0101 0016428 273.7424 86.1820 14.14662561583084 COSMOS 2084 1 20663U 90055A 21018.84453655 -.00000027 00000-0 15596-4 0 9998 2 20663 62.7938 168.9879 0047134 340.3183 19.6090 14.92177894655499 SL-6 R/B(2) 1 20666U 90055D 21019.19612090 .00000003 00000-0 18543-4 0 9998 2 20666 62.7860 83.7110 0077600 17.1347 343.2339 14.92423077656962 SL-8 R/B 1 20775U 90078B 21019.15864103 .00000938 00000-0 44906-4 0 9993 2 20775 82.9252 48.6503 0568896 246.0049 108.0607 14.35189513536662 SL-8 R/B 1 21088U 91006B 21018.81701432 .00000038 00000-0 23390-4 0 9995 2 21088 82.9437 125.1178 0021429 246.4190 225.8818 13.77146698505852 OKEAN-3 1 21397U 91039A 21018.85739213 .00000232 00000-0 19777-4 0 9996 2 21397 82.5233 331.9283 0018092 163.7967 196.3836 14.93026293584401 COSMOS 2151 1 21422U 91042A 21018.64917223 .00000194 00000-0 16517-4 0 9991 2 21422 82.4998 78.0655 0012994 229.7918 130.2166 14.92204007582976 SL-14 R/B 1 21423U 91042B 21018.82678323 .00000071 00000-0 63507-5 0 9993 2 21423 82.4942 175.6126 0016110 274.0272 85.9099 14.79812889575514 ERS-1 1 21574U 91050A 21018.87562310 .00000036 00000-0 26633-4 0 9991 2 21574 98.6281 338.6207 0033229 8.4447 351.7292 14.37777895546079 ARIANE 40 R/B 1 21610U 91050F 21019.15253334 -.00000002 00000-0 13130-4 0 9999 2 21610 98.4421 91.9741 0002731 352.7396 37.0150 14.40931035549047 INTERCOSMOS 25 1 21819U 91086A 21019.17841518 -.00000786 00000-0 -16476-3 0 9993 2 21819 82.5829 357.0892 1516700 172.2463 190.5281 12.05161564270293 SL-8 R/B 1 21876U 92008B 21018.80259817 -.00000026 00000-0 -42595-4 0 9994 2 21876 82.9252 222.3501 0034327 334.5264 36.1243 13.75668663451487 SL-8 R/B 1 21938U 92020B 21018.74942512 .00000028 00000-0 12623-4 0 9990 2 21938 82.9307 106.7410 0030375 131.4980 339.9607 13.75293313443260 COSMOS 2219 1 22219U 92076A 21018.61097505 -.00000070 00000-0 -12396-4 0 9999 2 22219 71.0627 338.2464 0018456 194.5678 165.4915 14.13660086453542 SL-16 R/B 1 22220U 92076B 21019.19512144 -.00000099 00000-0 -25819-4 0 9991 2 22220 70.9995 177.4318 0010616 69.8559 102.8911 14.16467196456558 COSMOS 2221 1 22236U 92080A 21018.75201711 .00000167 00000-0 15455-4 0 9998 2 22236 82.5073 260.2009 0015999 331.9069 28.1283 14.88001200501290 SL-16 R/B 1 22285U 92093B 21018.62283470 .00000000 00000-0 24411-4 0 9992 2 22285 71.0233 341.1076 0006687 281.8552 78.1821 14.15055893447763 COSMOS 2228 1 22286U 92094A 21018.80716226 .00000182 00000-0 16901-4 0 9990 2 22286 82.5186 216.6463 0022578 86.1178 274.2620 14.88220084517547 SL-16 R/B 1 22566U 93016B 21018.87371911 .00000332 00000-0 19583-3 0 9996 2 22566 71.0059 193.5606 0012258 292.8528 67.1300 14.14970735436808 COSMOS 2242 1 22626U 93024A 21018.87323722 .00000181 00000-0 16827-4 0 9990 2 22626 82.5205 244.7963 0020398 85.8803 274.4745 14.88072182500897 SL-16 R/B 1 22803U 93059B 21018.66568273 -.00000221 00000-0 -86305-4 0 9999 2 22803 70.9908 5.7220 0017822 196.1841 163.8716 14.16830283413787 ARIANE 40 R/B 1 22830U 93061H 21019.15019411 -.00000047 00000-0 -61090-6 0 9994 2 22830 98.7368 76.0193 0011660 53.9038 306.3223 14.31464450425930 COSMOS 2278 1 23087U 94023A 21018.75866726 -.00000231 00000-0 -97098-4 0 9992 2 23087 71.0550 137.6276 0008971 354.8388 5.2641 14.13823188379620 SL-16 R/B 1 23088U 94023B 21019.13224306 -.00000163 00000-0 -60017-4 0 9993 2 23088 70.9994 48.4264 0005760 267.4030 92.6433 14.14680073381080 SL-16 R/B 1 23343U 94074B 21018.77288730 .00000014 00000-0 92587-5 0 9994 2 23343 97.9701 75.5077 0007129 166.3325 308.4625 14.76858297410196 SL-16 R/B 1 23405U 94077B 21018.85144667 .00000181 00000-0 11743-3 0 9993 2 23405 70.9838 337.5624 0001936 190.8442 169.2639 14.15232270350829 ERS-2 1 23560U 95021A 21018.41635301 .00000806 00000-0 37438-4 0 9991 2 23560 98.5532 207.6448 0003976 144.4614 215.6885 15.23605744374848 ARIANE 40+ R/B 1 23561U 95021B 21019.15703963 .00000013 00000-0 19370-4 0 9999 2 23561 98.6974 67.3449 0006448 342.6804 82.2744 14.38004772349799 SL-16 R/B 1 23705U 95058B 21019.10772111 .00000052 00000-0 51204-4 0 9990 2 23705 71.0226 156.4799 0010153 99.8358 260.3912 14.15149339302783 SL-16 R/B 1 24298U 96051B 21018.87111021 -.00000226 00000-0 -96065-4 0 9991 2 24298 70.8357 176.3942 0014068 25.5075 334.6736 14.12475294256770 ORBVIEW 2 (SEASTAR) 1 24883U 97037A 21018.86022991 .00000021 00000-0 23570-4 0 9994 2 24883 98.6271 137.2972 0002537 164.9072 195.2189 14.33591511239571 SL-16 R/B 1 25400U 98043G 21018.85422779 -.00000004 00000-0 16863-4 0 9994 2 25400 98.6286 316.9989 0010968 69.5533 290.6823 14.25468599171701 SL-16 R/B 1 25407U 98045B 21018.82634414 -.00000292 00000-0 -12423-3 0 9998 2 25407 71.0108 164.9674 0007719 346.6814 13.4104 14.15833581161561 ISS (ZARYA) 1 25544U 98067A 21019.26407080 .00000787 00000-0 22186-4 0 9995 2 25544 51.6466 359.3118 0000279 283.9595 183.5470 15.49302228265512 SL-8 R/B 1 25723U 99022C 21018.80381377 .00047982 00000-0 16571-3 0 9993 2 25723 48.4069 251.9461 0003217 243.7344 116.3285 15.88927209211708 CZ-4B R/B 1 25732U 99025C 21018.89622455 -.00000038 00000-0 35883-5 0 9991 2 25732 98.9224 54.8689 0036633 317.5377 216.1924 14.17687113122345 OKEAN-O 1 25860U 99039A 21018.78516185 .00000010 00000-0 90446-5 0 9993 2 25860 98.1990 47.3518 0000747 98.0974 262.0320 14.76706197157299 SL-16 R/B 1 25861U 99039B 21018.82290175 .00000009 00000-0 87095-5 0 9991 2 25861 98.2092 31.2466 0015541 181.5677 352.0981 14.78615671159444 DELTA 2 R/B 1 25876U 99041E 21019.12335279 -.00000089 00000-0 24062-4 0 9992 2 25876 51.7661 178.9000 0530589 253.1097 101.1024 14.04497730 98957 HELIOS 1B 1 25977U 99064A 21018.73061537 .00000029 00000-0 10748-4 0 9997 2 25977 98.3008 187.4617 0001871 50.4258 309.7119 14.82525784407013 TERRA 1 25994U 99068A 21019.20855949 .00000051 00000-0 21412-4 0 9996 2 25994 98.1928 96.2566 0001324 98.9047 283.0786 14.57121013121732 SL-16 R/B 1 26070U 00006B 21018.56645661 .00000200 00000-0 12664-3 0 9996 2 26070 71.0026 81.2191 0015919 164.6879 195.4729 14.15468413 83073 MTI 1 26102U 00014A 21018.68743860 .00004854 00000-0 65326-4 0 9997 2 26102 97.4809 277.5328 0007625 140.3589 219.8228 15.58365314158001 TITAN 4B R/B 1 26474U 00047B 21018.87028737 .00000060 00000-0 16183-4 0 9997 2 26474 67.9922 202.7028 0059365 316.9222 42.7281 14.96068687111466 ENVISAT 1 27386U 02009A 21018.98655571 .00000013 00000-0 17664-4 0 9997 2 27386 98.1417 20.7380 0001191 85.9927 326.8937 14.38009130989597 IDEFIX & ARIANE 42P R/B 1 27422U 02021B 21019.13998047 .00000054 00000-0 37639-4 0 9997 2 27422 98.3831 337.6055 0011511 318.5230 41.5078 14.29306299974089 AQUA 1 27424U 02022A 21019.09048513 .00000117 00000-0 36054-4 0 9999 2 27424 98.2152 322.5650 0002386 59.7810 319.6218 14.57117142995321 CZ-4B R/B 1 27432U 02024C 21019.07370170 -.00000034 00000-0 66072-5 0 9998 2 27432 99.0899 30.9440 0049547 288.5323 139.8516 14.14102960964206 MIDORI II (ADEOS-II) 1 27597U 02056A 21018.86669133 .00000032 00000-0 30380-4 0 9990 2 27597 98.5481 327.3158 0002038 81.5046 278.6366 14.27480264942543 H-2A R/B 1 27601U 02056E 21019.07989801 -.00000100 00000-0 -21276-4 0 9999 2 27601 98.2045 49.4965 0071976 356.1636 25.1046 14.31994035945547 CZ-4B R/B 1 28059U 03049C 21018.78501918 -.00000007 00000-0 10055-4 0 9994 2 28059 98.4911 303.7438 0049626 199.0532 160.8808 14.52631075914090 CZ-2C R/B 1 28222U 04012C 21018.87593778 .00000669 00000-0 43572-4 0 9995 2 28222 97.7079 348.3942 0047322 14.9548 36.6637 15.10658867918511 SL-16 R/B 1 28353U 04021B 21018.86472233 -.00000285 00000-0 -12439-3 0 9994 2 28353 70.9984 207.5445 0005263 341.1378 18.9548 14.14235373857592 CZ-4B R/B 1 28415U 04035C 21018.84412364 .00000127 00000-0 12556-4 0 9999 2 28415 97.5870 63.7230 0050789 339.5981 20.3217 15.07006749896070 CZ-2C R/B 1 28480U 04046B 21018.82203905 -.00000014 00000-0 10112-4 0 9992 2 28480 98.0592 42.8311 0140864 307.5255 235.6708 14.25737106841129 ARIANE 5 R/B 1 28499U 04049H 21018.84388774 .00000036 00000-0 11986-4 0 9998 2 28499 98.0622 127.4248 0090851 297.5619 172.9839 14.80081215867955 CZ-2D R/B 1 28738U 05024B 21018.77787695 .00000315 00000-0 21831-4 0 9995 2 28738 97.3696 40.0536 0012530 152.8408 207.3481 15.12241001853948 SUZAKU (ASTRO-EII) 1 28773U 05025A 21019.19434774 .00001492 00000-0 67231-4 0 9990 2 28773 31.3828 53.4456 0004580 219.7645 140.2667 15.18023522856747 ALOS (DAICHI) 1 28931U 06002A 21019.09846643 .00000126 00000-0 33346-4 0 9996 2 28931 97.8683 0.5373 0001947 92.2140 267.9281 14.62787750799224 H-2A R/B 1 28932U 06002B 21018.77136987 .00000313 00000-0 34936-4 0 9998 2 28932 98.3313 27.0853 0087970 338.0369 194.9878 14.92415734813256 AKARI (ASTRO-F) 1 28939U 06005A 21018.97553580 .00002588 00000-0 68266-4 0 9991 2 28939 98.2487 24.3021 0088556 289.9940 69.1781 15.35774993813979 RESURS-DK 1 1 29228U 06021A 21018.77242455 .00000079 00000-0 13266-4 0 9998 2 29228 69.9363 359.8249 0003097 176.1196 183.9989 15.02630396805062 GENESIS 1 1 29252U 06029A 21019.12987043 .00000360 00000-0 27388-4 0 9995 2 29252 64.5230 316.0372 0024182 342.4171 17.6113 15.18431022800928 CZ-4B R/B 1 29507U 06046C 21019.07197269 .00000262 00000-0 25205-4 0 9991 2 29507 97.7173 45.8777 0046411 156.7051 203.6290 15.00621305777756 CZ-2C R/B 1 31114U 07010B 21019.16327340 .00000023 00000-0 29450-4 0 9996 2 31114 98.2378 223.2961 0059736 359.3797 0.7297 14.19344899713612 COSMO-SKYMED 1 1 31598U 07023A 21019.10642540 -.00000091 00000-0 -48958-5 0 9994 2 31598 97.8829 205.1329 0001428 91.3469 268.7897 14.82156441736773 GENESIS 2 1 31789U 07028A 21018.67988457 .00000536 00000-0 36587-4 0 9998 2 31789 64.5063 359.5496 0029269 219.1324 140.7683 15.17567651747837 COSMOS 2428 1 31792U 07029A 21019.16779678 -.00000116 00000-0 -36866-4 0 9997 2 31792 70.8912 179.7459 0005213 123.5986 236.5633 14.12238807699321 SL-16 R/B 1 31793U 07029B 21018.84133259 .00000078 00000-0 65799-4 0 9993 2 31793 70.9764 153.9076 0002694 277.5480 193.0272 14.14444507700110 KORONAS-FOTON 1 33504U 09003A 21018.71574574 .00000681 00000-0 33858-4 0 9995 2 33504 82.4418 8.6033 0017391 252.9961 106.9366 15.15842400659987 H-2A R/B 1 38341U 12025E 21018.72706197 .00000215 00000-0 32769-4 0 9999 2 38341 98.5179 194.0145 0054321 260.2265 99.2810 14.84150166469297 CUSAT 2 & FALCON 9 R/B 1 39271U 13055G 21018.45464168 .00004090 00000-0 97638-4 0 9996 2 39271 80.9654 35.3140 0576637 242.4227 111.7280 14.50707698381873 SL-4 R/B 1 39679U 14021B 21018.83550027 -.00000025 00000-0 17046-4 0 9994 2 39679 51.6150 187.7061 0170665 332.4563 26.7440 15.06723539371493 ALOS-2 1 39766U 14029A 21019.12469667 .00000200 00000-0 33654-4 0 9998 2 39766 97.9214 118.6417 0001501 92.7345 267.4040 14.79473844359584 CZ-2C R/B 1 40306U 14071B 21019.14648910 .00002818 00000-0 57915-4 0 9992 2 40306 97.3527 334.0903 0016674 97.9033 262.4110 15.46736373347190 SL-27 R/B 1 40354U 14084B 21019.15065582 .00000868 00000-0 22078-4 0 9993 2 40354 74.7386 301.7195 0036315 19.6098 340.6501 15.40714204341746 YAOGAN 29 1 41038U 15069A 21019.11034788 -.00000002 00000-0 67208-5 0 9993 2 41038 98.0274 12.9357 0000559 64.7876 295.3392 14.80481723278189 ASTRO-H (HITOMI) 1 41337U 16012A 21018.45478414 .00000290 00000-0 16554-4 0 9993 2 41337 31.0060 86.4817 0012320 35.6941 324.4516 14.98772941269789 HXMT (HUIYAN) 1 42758U 17034A 21019.07017858 .00000185 00000-0 25126-4 0 9994 2 42758 43.0183 292.9929 0011134 301.3528 189.9764 15.09037212198441 CZ-2C R/B 1 43521U 18054D 21019.12643926 .00000301 00000-0 18180-4 0 9995 2 43521 35.1539 290.5725 0082942 220.7728 138.6757 15.11286042141795 AEOLUS 1 43600U 18066A 21019.16010058 .00025337 00000-0 10080-3 0 9990 2 43600 96.7183 28.2885 0006723 97.9061 262.2975 15.86614198139579 SAOCOM 1A 1 43641U 18076A 21019.11482382 .00000017 00000-0 87512-5 0 9998 2 43641 97.8850 208.1585 0001401 83.5917 276.5455 14.82154279123547 CREW DRAGON DEMO-1 DEB 1 44064U 19011B 21019.13237010 .00022050 00000-0 15191-3 0 9999 2 44064 51.6305 293.7908 0004249 137.4078 222.7252 15.74532690106761 CZ-2F R/B 1 46390U 20063B 21018.38961013 .00026881 00000-0 11172-3 0 9996 2 46390 50.2026 58.3436 0009022 172.6756 187.4361 15.85455428 21533 2020-063G 1 46395U 20063G 21018.83342665 .00012473 00000-0 66273-4 0 9992 2 46395 50.2053 58.3895 0008912 167.9436 192.1760 15.80876833 21567